Weather in Smirnoye

Russia / Tyumen Oblast     55°49′01″N   68°59′06″E
temp.,
°C
wind,
m/s
gust,
m/s
humid.,
%
clouds,
%
prec.,
mm/h
press.,
hPa
HPBL,
m
9 may, sun
sun923:00+15ese2240100 0.0 101617
02:00+14e3345100 0.0 101539
05:00+12ene4851100 0.0 1016122
08:00+17e61141100 0.0 1016503
11:00+21e8103466 0.0 10161629
14:00+22e91131100 0.0 10152965
17:00+21e81034100 0.0 10162043
20:00+17ene81239100 0.0 1018794
10 may, mon
mon1023:00+15ene81341100 0.0 1018778
02:00+12ene71342100 0.0 1019681
05:00+10ene61349100 0.0 1021546
08:00+11ene81245100 0.0 1022771
11:00+15ene81034100 0.0 10231337
14:00+17ene892854 0.0 10231701
17:00+17ene78295 0.0 10231834
20:00+13e35443 0.0 102580
11 may, tue
tue1123:00+10ne22480 0.0 102618
02:00+8nne22550 0.0 102618
05:00+8nne33580 0.0 102729
08:00+14nne35440 0.0 1028463
11:00+18nne56340 0.0 10271607
14:00+20nne56260 0.0 10271879
17:00+21nne4525100 0.0 10271931
20:00+16e223999 0.0 102711
12 may, wed
wed1223:00+13s3340100 0.0 102736
02:00+12wsw354446 0.0 102778
05:00+11w465158 0.0 102785
08:00+17wnw5938100 0.0 1026404
11:00+18nw584594 0.0 1025862
14:00+20nnw7833100 0.0 10251955
17:00+17n584094 0.0 10261551
20:00+14nnw6947100 0.0 1026500
13 may, thu
thu1323:00+12n4861100 0.0 1026369
02:00+9n3776100 0.0 1027142
05:00+7nnw23815 0.0 102742
08:00+13nw33509 0.0 1027562
11:00+17nw464585 0.0 10261395
14:00+21nnw584277 0.0 10241978
17:00+20nnw594998 0.0 1024617
20:00+18nw4105783 0.0 1024355